Location: Caltech
(34.1382°N, 118.1253°W)
Time: 03:20:09
(UTC-07:00)

Cosmos 2237 Rocket - Visible Passes

Search period start: 21 August 2017 00:00
Search period end: 31 August 2017 00:00
Orbit: 836 x 849 km, 71.0° (Epoch: 20 August)

Date Brightness Start Highest point End Pass type
(mag) Time Alt. Az. Time Alt. Az. Time Alt. Az.
21 Aug 5.0 00:50:57 11° NW 00:50:57 11° NW 00:51:37 10° NNW visible
21 Aug 4.3 22:54:11 17° NNE 22:54:11 17° NNE 22:55:26 10° NNE visible
22 Aug 4.9 00:35:58 12° NW 00:35:58 12° NW 00:37:01 10° NNW visible
22 Aug 4.2 22:39:08 19° NNE 22:39:08 19° NNE 22:40:35 10° NNE visible
23 Aug 4.9 00:20:54 13° NW 00:20:54 13° NW 00:22:23 10° NNW visible
23 Aug 4.0 22:23:58 21° NNE 22:23:58 21° NNE 22:25:43 10° NNE visible
24 Aug 4.8 00:05:43 14° NW 00:05:43 14° NW 00:07:43 10° NNW visible
24 Aug 3.7 22:08:38 25° NNE 22:08:38 25° NNE 22:10:52 10° NNE visible
24 Aug 4.7 23:50:24 15° NW 23:50:24 15° NW 23:53:02 10° NNW visible
25 Aug 3.3 21:53:04 31° NE 21:53:04 31° NE 21:56:00 10° NNE visible
25 Aug 4.6 23:34:48 16° WNW 23:34:56 16° NW 23:38:20 10° NNW visible
26 Aug 2.7 21:37:07 44° NE 21:37:07 44° NE 21:41:08 10° NNE visible
26 Aug 4.6 23:18:48 16° WNW 23:20:03 17° WNW 23:23:37 10° NNW visible
27 Aug 2.1 21:20:13 54° SE 21:20:46 57° ESE 21:26:16 10° NNE visible
27 Aug 4.6 23:01:47 11° W 23:05:10 18° WNW 23:08:54 10° NNW visible
28 Aug 2.2 21:00:30 10° S 21:05:56 53° ESE 21:11:23 10° NNE visible
28 Aug 4.6 22:46:26 10° W 22:50:18 19° WNW 22:54:10 10° NNW visible
29 Aug 2.3 20:45:42 10° S 20:51:05 50° ESE 20:56:31 10° NNE visible
29 Aug 4.5 22:31:25 10° WSW 22:35:25 20° WNW 22:39:26 10° NNW visible
30 Aug 5.3 05:45:31 10° NNE 05:48:12 13° NE 05:50:53 10° E visible
30 Aug 2.3 20:30:55 10° S 20:36:15 47° ESE 20:41:38 10° NNE visible
30 Aug 4.5 22:16:24 10° WSW 22:20:32 21° WNW 22:24:41 10° N visible
